Time,TemperatureF,DewpointF,PressureIn,WindDirection,WindDirectionDegrees,WindSpeedMPH,WindSpeedGustMPH,Humidity,HourlyPrecipIn,Conditions,Clouds,dailyrainin,SoftwareType,DateUTC
2013-02-12 00:01:00,33.0,24.0,30.08,South,182,2.0,2.0,69,0.00,,,0.00,,2013-02-12 08:01:00,
2013-02-12 00:11:00,33.0,24.0,30.08,South,182,2.0,2.0,69,0.00,,,0.00,,2013-02-12 08:11:00,
2013-02-12 00:21:00,33.0,24.0,30.08,South,182,2.0,2.0,69,0.00,,,0.00,,2013-02-12 08:21:00,
2013-02-12 00:31:00,34.0,25.0,30.08,NNW,327,3.0,5.0,68,0.00,,,0.00,,2013-02-12 08:31:00,
2013-02-12 00:42:00,34.0,25.0,30.08,NNW,327,3.0,5.0,68,0.00,,,0.00,,2013-02-12 08:42:00,
2013-02-12 00:52:00,35.0,26.0,30.11,West,261,3.0,6.0,68,0.00,,,0.00,,2013-02-12 08:52:00,
2013-02-12 01:01:00,35.0,26.0,30.11,WSW,243,2.0,5.0,68,0.00,,,0.00,,2013-02-12 09:01:00,
2013-02-12 01:11:00,35.0,26.0,30.11,WSW,243,2.0,5.0,68,0.00,,,0.00,,2013-02-12 09:11:00,
2013-02-12 01:21:00,34.0,24.0,30.11,WSW,248,2.0,6.0,67,0.00,,,0.00,,2013-02-12 09:21:00,
2013-02-12 01:31:00,33.0,23.0,30.11,SW,234,1.0,3.0,67,0.00,,,0.00,,2013-02-12 09:31:00,
2013-02-12 01:41:00,33.0,23.0,30.11,SW,234,1.0,3.0,67,0.00,,,0.00,,2013-02-12 09:41:00,
2013-02-12 01:51:00,34.0,24.0,30.11,WSW,248,3.0,7.0,67,0.00,,,0.00,,2013-02-12 09:51:00,
2013-02-12 02:01:00,34.0,24.0,30.11,WSW,248,3.0,7.0,67,0.00,,,0.00,,2013-02-12 10:01:00,
2013-02-12 02:11:00,34.0,24.0,30.11,WSW,248,3.0,7.0,67,0.00,,,0.00,,2013-02-12 10:11:00,
2013-02-12 02:21:00,34.0,24.0,30.11,WSW,248,3.0,7.0,67,0.00,,,0.00,,2013-02-12 10:21:00,
2013-02-12 02:32:00,34.0,24.0,30.11,WSW,258,2.0,6.0,67,0.00,,,0.00,,2013-02-12 10:32:00,
2013-02-12 02:43:00,34.0,24.0,30.11,WSW,258,2.0,6.0,67,0.00,,,0.00,,2013-02-12 10:43:00,
2013-02-12 02:52:00,35.0,26.0,30.11,WSW,252,3.0,7.0,68,0.00,,,0.00,,2013-02-12 10:52:00,
2013-02-12 03:01:00,34.0,25.0,30.11,WSW,248,2.0,7.0,68,0.00,,,0.00,,2013-02-12 11:01:00,
2013-02-12 03:11:00,34.0,25.0,30.11,WSW,248,2.0,7.0,68,0.00,,,0.00,,2013-02-12 11:11:00,
2013-02-12 03:21:00,34.0,25.0,30.11,WSW,248,2.0,7.0,68,0.00,,,0.00,,2013-02-12 11:21:00,
2013-02-12 03:31:00,34.0,25.0,30.11,SSW,196,3.0,5.0,68,0.00,,,0.00,,2013-02-12 11:31:00,
2013-02-12 03:41:00,34.0,25.0,30.11,SSW,196,3.0,5.0,68,0.00,,,0.00,,2013-02-12 11:41:00,
2013-02-12 03:52:00,34.0,25.0,30.11,SSW,196,3.0,5.0,68,0.00,,,0.00,,2013-02-12 11:52:00,
2013-02-12 04:01:00,36.0,26.0,30.11,WSW,247,1.0,2.0,67,0.00,,,0.00,,2013-02-12 12:01:00,
2013-02-12 04:11:00,36.0,26.0,30.11,WSW,247,1.0,2.0,67,0.00,,,0.00,,2013-02-12 12:11:00,
2013-02-12 04:21:00,36.0,26.0,30.14,SSW,202,2.0,3.0,67,0.00,,,0.00,,2013-02-12 12:21:00,
2013-02-12 04:32:00,36.0,26.0,30.11,West,277,2.0,3.0,66,0.00,,,0.00,,2013-02-12 12:32:00,
2013-02-12 04:41:00,36.0,26.0,30.11,West,277,2.0,3.0,66,0.00,,,0.00,,2013-02-12 12:41:00,
2013-02-12 04:52:00,36.0,26.0,30.14,SSW,210,2.0,5.0,66,0.00,,,0.00,,2013-02-12 12:52:00,
2013-02-12 05:01:00,36.0,26.0,30.14,South,191,2.0,3.0,66,0.00,,,0.00,,2013-02-12 13:01:00,
2013-02-12 05:11:00,36.0,26.0,30.14,South,191,2.0,3.0,66,0.00,,,0.00,,2013-02-12 13:11:00,
2013-02-12 05:22:00,36.0,26.0,30.14,South,191,2.0,3.0,66,0.00,,,0.00,,2013-02-12 13:22:00,
2013-02-12 05:31:00,36.0,25.0,30.11,SSW,202,3.0,6.0,65,0.00,,,0.00,,2013-02-12 13:31:00,
2013-02-12 05:41:00,36.0,25.0,30.11,SSW,202,3.0,6.0,65,0.00,,,0.00,,2013-02-12 13:41:00,
2013-02-12 05:52:00,36.0,25.0,30.14,South,191,3.0,6.0,65,0.00,,,0.00,,2013-02-12 13:52:00,
2013-02-12 06:01:00,36.0,25.0,30.14,South,191,3.0,6.0,65,0.00,,,0.00,,2013-02-12 14:01:00,
2013-02-12 06:11:00,36.0,25.0,30.14,South,191,3.0,6.0,65,0.00,,,0.00,,2013-02-12 14:11:00,
2013-02-12 06:21:00,35.0,25.0,30.14,South,179,3.0,6.0,66,0.00,,,0.00,,2013-02-12 14:21:00,
2013-02-12 06:31:00,35.0,25.0,30.14,SSW,199,2.0,3.0,67,0.00,,,0.00,,2013-02-12 14:31:00,
2013-02-12 06:41:00,35.0,25.0,30.14,SSW,199,2.0,3.0,67,0.00,,,0.00,,2013-02-12 14:41:00,
2013-02-12 06:52:00,35.0,25.0,30.14,SSW,199,2.0,3.0,67,0.00,,,0.00,,2013-02-12 14:52:00,
2013-02-12 07:01:00,34.0,24.0,30.14,SSE,151,3.0,3.0,67,0.00,,,0.00,,2013-02-12 15:01:00,
2013-02-12 07:11:00,34.0,24.0,30.14,SSE,151,3.0,3.0,67,0.00,,,0.00,,2013-02-12 15:11:00,
2013-02-12 07:21:00,34.0,24.0,30.14,SSE,151,3.0,3.0,67,0.00,,,0.00,,2013-02-12 15:21:00,
2013-02-12 07:32:00,35.0,25.0,30.14,SSE,158,3.0,3.0,67,0.00,,,0.00,,2013-02-12 15:32:00,
2013-02-12 07:42:00,35.0,25.0,30.14,SSE,158,3.0,3.0,67,0.00,,,0.00,,2013-02-12 15:42:00,
2013-02-12 07:52:00,36.0,26.0,30.14,SSW,202,4.0,6.0,66,0.00,,,0.00,,2013-02-12 15:52:00,
2013-02-12 08:01:00,36.0,26.0,30.14,SSW,202,4.0,6.0,66,0.00,,,0.00,,2013-02-12 16:01:00,
2013-02-12 08:11:00,36.0,26.0,30.14,SSW,202,4.0,6.0,66,0.00,,,0.00,,2013-02-12 16:11:00,
2013-02-12 08:22:00,36.0,26.0,30.14,SSW,202,4.0,6.0,66,0.00,,,0.00,,2013-02-12 16:22:00,
2013-02-12 08:52:00,40.0,28.0,30.17,SSW,201,3.0,5.0,63,0.00,,,0.00,,2013-02-12 16:52:00,
2013-02-12 09:01:00,41.0,29.0,30.17,SSW,197,3.0,5.0,62,0.00,,,0.00,,2013-02-12 17:01:00,
2013-02-12 09:11:00,41.0,29.0,30.17,SSW,197,3.0,5.0,62,0.00,,,0.00,,2013-02-12 17:11:00,
2013-02-12 09:21:00,41.0,29.0,30.17,SSW,192,3.0,5.0,61,0.00,,,0.00,,2013-02-12 17:21:00,
2013-02-12 09:31:00,41.0,29.0,30.17,SSW,192,3.0,5.0,61,0.00,,,0.00,,2013-02-12 17:31:00,
2013-02-12 09:41:00,41.0,29.0,30.17,SSW,192,3.0,5.0,61,0.00,,,0.00,,2013-02-12 17:41:00,
2013-02-12 09:52:00,44.0,30.0,30.17,SSW,202,3.0,7.0,58,0.00,,,0.00,,2013-02-12 17:52:00,
2013-02-12 10:01:00,44.0,30.0,30.17,SSW,202,3.0,7.0,58,0.00,,,0.00,,2013-02-12 18:01:00,
2013-02-12 10:11:00,45.0,30.0,30.17,WNW,286,5.0,7.0,55,0.00,,,0.00,,2013-02-12 18:11:00,
2013-02-12 10:22:00,45.0,30.0,30.17,WNW,286,5.0,7.0,55,0.00,,,0.00,,2013-02-12 18:22:00,
2013-02-12 10:31:00,45.0,30.0,30.17,WNW,282,6.0,8.0,55,0.00,,,0.00,,2013-02-12 18:31:00,
2013-02-12 10:41:00,45.0,30.0,30.17,WNW,282,6.0,8.0,55,0.00,,,0.00,,2013-02-12 18:41:00,
2013-02-12 10:51:00,45.0,29.0,30.17,WNW,287,6.0,9.0,54,0.00,,,0.00,,2013-02-12 18:51:00,
2013-02-12 11:02:00,45.0,29.0,30.17,WNW,287,6.0,9.0,54,0.00,,,0.00,,2013-02-12 19:02:00,
2013-02-12 11:11:00,45.0,29.0,30.17,WNW,287,6.0,9.0,54,0.00,,,0.00,,2013-02-12 19:11:00,
2013-02-12 11:21:00,47.0,30.0,30.17,West,270,8.0,14.0,51,0.00,,,0.00,,2013-02-12 19:21:00,
2013-02-12 11:31:00,47.0,29.0,30.17,West,281,8.0,12.0,50,0.00,,,0.00,,2013-02-12 19:31:00,
2013-02-12 11:41:00,47.0,29.0,30.17,West,281,8.0,12.0,50,0.00,,,0.00,,2013-02-12 19:41:00,
2013-02-12 11:51:00,47.0,29.0,30.17,West,281,8.0,12.0,50,0.00,,,0.00,,2013-02-12 19:51:00,
2013-02-12 12:01:00,49.0,31.0,30.17,WSW,249,9.0,13.0,49,0.00,,,0.00,,2013-02-12 20:01:00,
2013-02-12 12:11:00,49.0,31.0,30.17,WSW,249,9.0,13.0,49,0.00,,,0.00,,2013-02-12 20:11:00,
2013-02-12 12:21:00,48.0,30.0,30.17,WSW,248,7.0,12.0,50,0.00,,,0.00,,2013-02-12 20:21:00,
2013-02-12 12:31:00,48.0,30.0,30.17,West,278,7.0,10.0,50,0.00,,,0.00,,2013-02-12 20:31:00,
2013-02-12 12:41:00,48.0,30.0,30.17,West,278,7.0,10.0,50,0.00,,,0.00,,2013-02-12 20:41:00,
2013-02-12 12:51:00,48.0,30.0,30.17,West,269,8.0,13.0,49,0.00,,,0.00,,2013-02-12 20:51:00,
2013-02-12 13:01:00,49.0,31.0,30.17,WSW,258,8.0,13.0,49,0.00,,,0.00,,2013-02-12 21:01:00,
2013-02-12 13:11:00,49.0,31.0,30.17,WSW,258,8.0,13.0,49,0.00,,,0.00,,2013-02-12 21:11:00,
2013-02-12 13:21:00,49.0,30.0,30.17,WNW,292,9.0,13.0,48,0.00,,,0.00,,2013-02-12 21:21:00,
2013-02-12 13:31:00,50.0,31.0,30.17,WNW,300,7.0,13.0,47,0.00,,,0.00,,2013-02-12 21:31:00,
2013-02-12 13:41:00,50.0,31.0,30.17,WNW,300,7.0,13.0,47,0.00,,,0.00,,2013-02-12 21:41:00,
2013-02-12 13:51:00,50.0,31.0,30.17,WNW,300,7.0,13.0,47,0.00,,,0.00,,2013-02-12 21:51:00,
2013-02-12 14:01:00,49.0,29.0,30.17,NW,306,9.0,14.0,46,0.00,,,0.00,,2013-02-12 22:01:00,
2013-02-12 14:21:00,49.0,29.0,30.17,NW,306,9.0,14.0,46,0.00,,,0.00,,2013-02-12 22:21:00,
2013-02-12 14:31:00,50.0,30.0,30.14,WNW,286,6.0,10.0,46,0.00,,,0.00,,2013-02-12 22:31:00,
2013-02-12 14:41:00,50.0,30.0,30.14,WNW,286,6.0,10.0,46,0.00,,,0.00,,2013-02-12 22:41:00,
2013-02-12 14:52:00,50.0,28.0,30.14,NNW,328,11.0,15.0,42,0.00,,,0.00,,2013-02-12 22:52:00,
2013-02-12 15:01:00,49.0,27.0,30.17,WNW,283,10.0,15.0,43,0.00,,,0.00,,2013-02-12 23:01:00,
2013-02-12 15:11:00,48.0,26.0,30.14,WNW,292,13.0,17.0,42,0.00,,,0.00,,2013-02-12 23:11:00,
2013-02-12 15:21:00,48.0,26.0,30.14,WNW,292,13.0,17.0,42,0.00,,,0.00,,2013-02-12 23:21:00,
2013-02-12 15:31:00,47.0,25.0,30.17,WNW,292,13.0,17.0,42,0.00,,,0.00,,2013-02-12 23:31:00,
2013-02-12 15:41:00,47.0,25.0,30.17,WNW,292,13.0,17.0,42,0.00,,,0.00,,2013-02-12 23:41:00,
2013-02-12 15:52:00,47.0,25.0,30.17,West,281,12.0,15.0,42,0.00,,,0.00,,2013-02-12 23:52:00,
2013-02-12 16:02:00,46.0,25.0,30.14,WNW,296,9.0,15.0,44,0.00,,,0.00,,2013-02-13 00:02:00,
2013-02-12 16:11:00,46.0,25.0,30.14,WNW,296,9.0,15.0,44,0.00,,,0.00,,2013-02-13 00:11:00,
2013-02-12 16:21:00,47.0,26.0,30.17,WNW,295,11.0,16.0,43,0.00,,,0.00,,2013-02-13 00:21:00,
2013-02-12 16:32:00,47.0,26.0,30.17,WNW,295,11.0,16.0,43,0.00,,,0.00,,2013-02-13 00:32:00,
2013-02-12 16:42:00,47.0,26.0,30.17,WNW,295,11.0,16.0,43,0.00,,,0.00,,2013-02-13 00:42:00,
2013-02-12 16:51:00,47.0,26.0,30.17,WNW,295,11.0,16.0,43,0.00,,,0.00,,2013-02-13 00:51:00,
2013-02-12 17:01:00,45.0,24.0,30.14,NW,314,9.0,13.0,44,0.00,,,0.00,,2013-02-13 01:01:00,
2013-02-12 17:11:00,45.0,24.0,30.14,NW,314,9.0,13.0,44,0.00,,,0.00,,2013-02-13 01:11:00,
2013-02-12 17:21:00,44.0,24.0,30.14,WNW,303,6.0,9.0,45,0.00,,,0.00,,2013-02-13 01:21:00,
2013-02-12 17:31:00,44.0,24.0,30.14,West,274,5.0,9.0,45,0.00,,,0.00,,2013-02-13 01:31:00,
2013-02-12 17:42:00,44.0,24.0,30.14,West,274,5.0,9.0,45,0.00,,,0.00,,2013-02-13 01:42:00,
2013-02-12 17:51:00,44.0,24.0,30.14,West,274,5.0,9.0,45,0.00,,,0.00,,2013-02-13 01:51:00,
2013-02-12 18:01:00,41.0,22.0,30.14,WNW,292,3.0,12.0,47,0.00,,,0.00,,2013-02-13 02:01:00,
2013-02-12 18:11:00,41.0,22.0,30.14,WNW,292,3.0,12.0,47,0.00,,,0.00,,2013-02-13 02:11:00,
2013-02-12 18:21:00,39.0,21.0,30.17,West,273,4.0,5.0,49,0.00,,,0.00,,2013-02-13 02:21:00,
2013-02-12 18:31:00,39.0,23.0,30.17,WNW,299,10.0,13.0,52,0.00,,,0.00,,2013-02-13 02:31:00,
2013-02-12 18:41:00,39.0,23.0,30.17,WNW,299,10.0,13.0,52,0.00,,,0.00,,2013-02-13 02:41:00,
2013-02-12 18:51:00,39.0,24.0,30.17,NW,313,9.0,13.0,54,0.00,,,0.00,,2013-02-13 02:51:00,
2013-02-12 19:01:00,39.0,25.0,30.17,NW,304,7.0,10.0,57,0.00,,,0.00,,2013-02-13 03:01:00,
2013-02-12 19:11:00,39.0,25.0,30.17,NW,304,7.0,10.0,57,0.00,,,0.00,,2013-02-13 03:11:00,
2013-02-12 19:21:00,39.0,25.0,30.17,NW,304,7.0,10.0,57,0.00,,,0.00,,2013-02-13 03:21:00,
2013-02-12 19:32:00,40.0,26.0,30.14,WNW,302,9.0,14.0,56,0.00,,,0.00,,2013-02-13 03:32:00,
2013-02-12 19:41:00,40.0,26.0,30.14,WNW,302,9.0,14.0,56,0.00,,,0.00,,2013-02-13 03:41:00,
2013-02-12 19:52:00,40.0,25.0,30.14,West,262,6.0,10.0,55,0.00,,,0.00,,2013-02-13 03:52:00,
2013-02-12 20:01:00,39.0,24.0,30.14,WSW,238,3.0,6.0,54,0.00,,,0.00,,2013-02-13 04:01:00,
2013-02-12 20:11:00,39.0,24.0,30.14,WSW,238,3.0,6.0,54,0.00,,,0.00,,2013-02-13 04:11:00,
2013-02-12 20:21:00,38.0,23.0,30.17,South,178,1.0,5.0,55,0.00,,,0.00,,2013-02-13 04:21:00,
2013-02-12 20:31:00,38.0,23.0,30.17,South,178,1.0,5.0,55,0.00,,,0.00,,2013-02-13 04:31:00,
2013-02-12 20:41:00,38.0,23.0,30.17,South,178,1.0,5.0,55,0.00,,,0.00,,2013-02-13 04:41:00,
2013-02-12 20:51:00,38.0,23.0,30.14,SSE,163,3.0,5.0,55,0.00,,,0.00,,2013-02-13 04:51:00,
2013-02-12 21:01:00,37.0,23.0,30.17,WNW,291,5.0,8.0,56,0.00,,,0.00,,2013-02-13 05:01:00,
2013-02-12 21:11:00,37.0,23.0,30.17,WNW,291,5.0,8.0,56,0.00,,,0.00,,2013-02-13 05:11:00,
2013-02-12 21:22:00,37.0,23.0,30.17,WNW,291,5.0,8.0,56,0.00,,,0.00,,2013-02-13 05:22:00,
2013-02-12 21:31:00,37.0,23.0,30.17,SSE,147,1.0,3.0,56,0.00,,,0.00,,2013-02-13 05:31:00,
2013-02-12 21:41:00,37.0,23.0,30.17,SSE,147,1.0,3.0,56,0.00,,,0.00,,2013-02-13 05:41:00,
2013-02-12 21:52:00,37.0,23.0,30.17,SSE,158,3.0,5.0,56,0.00,,,0.00,,2013-02-13 05:52:00,
2013-02-12 22:02:00,37.0,23.0,30.14,SW,223,5.0,7.0,56,0.00,,,0.00,,2013-02-13 06:02:00,
2013-02-12 22:11:00,37.0,22.0,30.14,SSW,192,4.0,6.0,55,0.00,,,0.00,,2013-02-13 06:11:00,
2013-02-12 22:21:00,37.0,22.0,30.14,SSW,192,4.0,6.0,55,0.00,,,0.00,,2013-02-13 06:21:00,
2013-02-12 22:31:00,38.0,23.0,30.17,SSW,210,3.0,5.0,54,0.00,,,0.00,,2013-02-13 06:31:00,
2013-02-12 22:41:00,38.0,23.0,30.17,South,180,4.0,7.0,54,0.00,,,0.00,,2013-02-13 06:41:00,
2013-02-12 22:51:00,38.0,23.0,30.17,South,180,4.0,7.0,54,0.00,,,0.00,,2013-02-13 06:51:00,
2013-02-12 23:02:00,39.0,24.0,30.17,SSW,202,6.0,8.0,54,0.00,,,0.00,,2013-02-13 07:02:00,
2013-02-12 23:11:00,39.0,24.0,30.14,SSW,202,5.0,9.0,54,0.00,,,0.00,,2013-02-13 07:11:00,
2013-02-12 23:21:00,39.0,24.0,30.14,SSW,202,5.0,9.0,54,0.00,,,0.00,,2013-02-13 07:21:00,
2013-02-12 23:31:00,39.0,23.0,30.14,South,185,5.0,7.0,53,0.00,,,0.00,,2013-02-13 07:31:00,
2013-02-12 23:41:00,39.0,23.0,30.14,South,185,5.0,7.0,53,0.00,,,0.00,,2013-02-13 07:41:00,
2013-02-12 23:51:00,39.0,24.0,30.14,SSW,208,3.0,7.0,54,0.00,,,0.00,,2013-02-13 07:51:00,